Time,TemperatureF,DewpointF,PressureIn,WindDirection,WindDirectionDegrees,WindSpeedMPH,WindSpeedGustMPH,Humidity,HourlyPrecipIn,Conditions,Clouds,dailyrainin,SoftwareType,DateUTC
2013-03-24 00:00:00,34.0,-6.2,29.88,WNW,287,3.1,3.1,17,0.00,,---,0.00,VWS V14.01,2013-03-24 04:00:00,
2013-03-24 00:02:00,34.0,-6.2,29.91,West,271,5.4,5.4,17,0.00,,---,0.00,VWS V14.01,2013-03-24 04:02:00,
2013-03-24 00:07:00,34.0,-6.2,29.91,NW,310,4.9,4.9,17,0.00,,---,0.00,VWS V14.01,2013-03-24 04:07:00,
2013-03-24 00:12:00,34.7,-5.6,29.91,NNW,338,6.3,6.3,17,0.00,,---,0.00,VWS V14.01,2013-03-24 04:12:00,
2013-03-24 00:17:00,34.9,-5.5,29.88,NNW,328,6.3,6.3,17,0.00,,---,0.00,VWS V14.01,2013-03-24 04:17:00,
2013-03-24 00:22:00,34.9,-5.5,29.88,North,353,0.0,0.0,17,0.00,,---,0.00,VWS V14.01,2013-03-24 04:22:00,
2013-03-24 00:27:00,34.9,-5.5,29.88,NW,325,4.0,4.0,17,0.00,,---,0.00,VWS V14.01,2013-03-24 04:27:00,
2013-03-24 00:32:00,34.9,-5.5,29.88,NW,325,4.0,4.0,17,0.00,,---,0.00,VWS V14.01,2013-03-24 04:32:00,
2013-03-24 00:37:00,34.9,-5.5,29.88,NW,307,3.1,3.1,17,0.00,,---,0.00,VWS V14.01,2013-03-24 04:37:00,
2013-03-24 00:42:00,34.9,-5.5,29.88,WNW,302,8.1,8.1,17,0.00,,---,0.00,VWS V14.01,2013-03-24 04:42:00,
2013-03-24 00:47:00,34.7,-5.6,29.91,NW,318,5.4,5.4,17,0.00,,---,0.00,VWS V14.01,2013-03-24 04:47:00,
2013-03-24 00:52:00,34.9,-5.5,29.91,NNE,14,2.7,2.7,17,0.00,,---,0.00,VWS V14.01,2013-03-24 04:52:00,
2013-03-24 00:57:00,34.5,-5.8,29.91,West,260,0.0,0.0,17,0.00,,---,0.00,VWS V14.01,2013-03-24 04:57:00,
2013-03-24 01:02:00,34.3,-5.9,29.88,WNW,288,4.9,4.9,17,0.00,,---,0.00,VWS V14.01,2013-03-24 05:02:00,
2013-03-24 01:07:00,34.3,-5.9,29.88,NW,304,5.4,5.4,17,0.00,,---,0.00,VWS V14.01,2013-03-24 05:07:00,
2013-03-24 01:12:00,34.5,-5.8,29.91,NW,325,6.3,6.3,17,0.00,,---,0.00,VWS V14.01,2013-03-24 05:12:00,
2013-03-24 01:17:00,34.3,-5.9,29.91,NW,317,4.0,4.0,17,0.00,,---,0.00,VWS V14.01,2013-03-24 05:17:00,
2013-03-24 01:22:00,34.3,-5.9,29.91,WNW,290,7.2,7.2,17,0.00,,---,0.00,VWS V14.01,2013-03-24 05:22:00,
2013-03-24 01:27:00,34.0,-6.2,29.91,WNW,285,2.7,2.7,17,0.00,,---,0.00,VWS V14.01,2013-03-24 05:27:00,
2013-03-24 01:32:00,33.4,-5.5,29.91,West,269,0.0,0.0,18,0.00,,---,0.00,VWS V14.01,2013-03-24 05:32:00,
2013-03-24 01:37:00,33.4,-5.5,29.91,West,273,4.5,4.5,18,0.00,,---,0.00,VWS V14.01,2013-03-24 05:37:00,
2013-03-24 01:42:00,32.9,-5.9,29.91,NW,313,4.0,4.0,18,0.00,,---,0.00,VWS V14.01,2013-03-24 05:42:00,
2013-03-24 01:47:00,33.1,-5.8,29.91,West,270,3.1,3.1,18,0.00,,---,0.00,VWS V14.01,2013-03-24 05:47:00,
2013-03-24 01:52:00,33.1,-5.8,29.91,NW,304,6.3,6.3,18,0.00,,---,0.00,VWS V14.01,2013-03-24 05:52:00,
2013-03-24 01:57:00,33.1,-5.8,29.91,NW,308,0.0,0.0,18,0.00,,---,0.00,VWS V14.01,2013-03-24 05:57:00,
2013-03-24 02:02:00,33.3,-5.7,29.91,North,353,3.6,3.6,18,0.00,,---,0.00,VWS V14.01,2013-03-24 06:02:00,
2013-03-24 02:07:00,33.1,-5.8,29.91,WNW,284,3.1,3.1,18,0.00,,---,0.00,VWS V14.01,2013-03-24 06:07:00,
2013-03-24 02:12:00,32.9,-5.9,29.91,NW,307,3.6,3.6,18,0.00,,---,0.00,VWS V14.01,2013-03-24 06:12:00,
2013-03-24 02:17:00,32.9,-5.9,29.91,WNW,282,2.7,2.7,18,0.00,,---,0.00,VWS V14.01,2013-03-24 06:17:00,
2013-03-24 02:22:00,33.1,-3.6,29.91,WNW,282,2.7,2.7,20,0.00,,---,0.00,VWS V14.01,2013-03-24 06:22:00,
2013-03-24 02:27:00,33.1,-3.6,29.91,North,10,3.1,3.1,20,0.00,,---,0.00,VWS V14.01,2013-03-24 06:27:00,
2013-03-24 02:32:00,32.9,-3.8,29.88,WNW,294,2.7,2.7,20,0.00,,---,0.00,VWS V14.01,2013-03-24 06:32:00,
2013-03-24 02:37:00,32.9,-3.8,29.88,West,279,6.7,6.7,20,0.00,,---,0.00,VWS V14.01,2013-03-24 06:37:00,
2013-03-24 02:42:00,32.9,-3.8,29.88,NNW,340,4.9,4.9,20,0.00,,---,0.00,VWS V14.01,2013-03-24 06:42:00,
2013-03-24 02:48:00,32.9,-3.8,29.88,NW,318,3.6,3.6,20,0.00,,---,0.00,VWS V14.01,2013-03-24 06:48:00,
2013-03-24 02:53:00,32.9,-3.8,29.88,WNW,282,7.6,7.6,20,0.00,,---,0.00,VWS V14.01,2013-03-24 06:53:00,
2013-03-24 02:58:00,32.7,-3.9,29.88,WNW,292,3.1,3.1,20,0.00,,---,0.00,VWS V14.01,2013-03-24 06:58:00,
2013-03-24 03:03:00,32.9,-3.8,29.88,West,264,0.0,0.0,20,0.00,,---,0.00,VWS V14.01,2013-03-24 07:03:00,
2013-03-24 03:08:00,32.5,-4.1,29.88,SW,235,2.7,2.7,20,0.00,,---,0.00,VWS V14.01,2013-03-24 07:08:00,
2013-03-24 03:13:00,32.5,-4.1,29.91,SW,235,0.0,0.0,20,0.00,,---,0.00,VWS V14.01,2013-03-24 07:13:00,
2013-03-24 03:18:00,31.8,-6.8,29.91,SW,235,0.0,0.0,18,0.00,,---,0.43,VWS V14.01,2013-03-24 07:18:00,
2013-03-24 03:23:00,30.6,-7.9,29.91,SW,235,0.0,0.0,18,0.00,,---,0.00,VWS V14.01,2013-03-24 07:23:00,
2013-03-24 03:28:00,30.2,-8.2,29.91,WSW,237,0.0,0.0,18,0.00,,---,0.00,VWS V14.01,2013-03-24 07:28:00,
2013-03-24 03:33:00,30.2,-8.2,29.88,WSW,237,0.0,0.0,18,0.00,,---,0.00,VWS V14.01,2013-03-24 07:33:00,
2013-03-24 03:38:00,29.3,-6.8,29.88,WSW,237,0.0,0.0,20,0.00,,---,0.00,VWS V14.01,2013-03-24 07:38:00,
2013-03-24 03:43:00,28.8,-7.2,29.88,West,266,0.0,0.0,20,0.00,,---,0.00,VWS V14.01,2013-03-24 07:43:00,
2013-03-24 03:48:00,28.2,-6.7,29.88,West,266,0.0,0.0,21,0.00,,---,0.00,VWS V14.01,2013-03-24 07:48:00,
2013-03-24 03:53:00,27.9,-7.0,29.88,West,279,0.0,0.0,21,0.00,,---,0.00,VWS V14.01,2013-03-24 07:53:00,
2013-03-24 03:58:00,27.9,-7.0,29.88,West,279,0.0,0.0,21,0.00,,---,0.00,VWS V14.01,2013-03-24 07:58:00,
2013-03-24 04:03:00,27.9,-5.1,29.88,WSW,254,0.0,0.0,23,0.00,,---,0.00,VWS V14.01,2013-03-24 08:03:00,
2013-03-24 04:08:00,27.7,-5.3,29.88,WSW,254,0.0,0.0,23,0.00,,---,0.00,VWS V14.01,2013-03-24 08:08:00,
2013-03-24 04:13:00,27.3,-3.0,29.88,West,267,0.0,0.0,26,0.00,,---,0.00,VWS V14.01,2013-03-24 08:13:00,
2013-03-24 04:18:00,27.0,-3.3,29.88,West,266,0.0,0.0,26,0.00,,---,0.00,VWS V14.01,2013-03-24 08:18:00,
2013-03-24 04:23:00,27.0,-3.3,29.88,West,266,0.0,0.0,26,0.00,,---,0.00,VWS V14.01,2013-03-24 08:23:00,
2013-03-24 04:28:00,26.6,-1.4,29.91,West,266,0.0,0.0,29,0.00,,---,0.00,VWS V14.01,2013-03-24 08:28:00,
2013-03-24 04:33:00,26.1,-0.4,29.91,West,266,0.0,0.0,31,0.00,,---,0.00,VWS V14.01,2013-03-24 08:33:00,
2013-03-24 04:38:00,25.9,-0.6,29.91,WNW,300,0.0,0.0,31,0.00,,---,0.00,VWS V14.01,2013-03-24 08:38:00,
2013-03-24 04:43:00,25.9,0.1,29.88,WNW,286,2.7,2.7,32,0.00,,---,0.00,VWS V14.01,2013-03-24 08:43:00,
2013-03-24 04:48:00,25.9,0.1,29.88,WSW,252,0.0,0.0,32,0.00,,---,0.00,VWS V14.01,2013-03-24 08:48:00,
2013-03-24 04:53:00,26.4,1.2,29.88,SW,233,0.0,0.0,33,0.00,,---,0.00,VWS V14.01,2013-03-24 08:53:00,
2013-03-24 04:58:00,26.4,1.2,29.91,NNW,340,0.0,0.0,33,0.00,,---,0.00,VWS V14.01,2013-03-24 08:58:00,
2013-03-24 05:03:00,26.4,1.2,29.91,NNW,340,0.0,0.0,33,0.00,,---,0.00,VWS V14.01,2013-03-24 09:03:00,
2013-03-24 05:08:00,26.8,1.5,29.91,West,276,2.7,2.7,33,0.00,,---,0.00,VWS V14.01,2013-03-24 09:08:00,
2013-03-24 05:13:00,27.1,2.5,29.91,West,271,0.0,0.0,34,0.00,,---,0.00,VWS V14.01,2013-03-24 09:13:00,
2013-03-24 05:18:00,27.1,2.5,29.91,West,271,0.0,0.0,34,0.00,,---,0.00,VWS V14.01,2013-03-24 09:18:00,
2013-03-24 05:23:00,27.0,2.3,29.91,NNW,331,0.0,0.0,34,0.00,,---,0.00,VWS V14.01,2013-03-24 09:23:00,
2013-03-24 05:28:00,27.0,2.3,29.91,NW,318,0.0,0.0,34,0.00,,---,0.00,VWS V14.01,2013-03-24 09:28:00,
2013-03-24 05:33:00,27.0,2.3,29.91,West,264,3.1,3.1,34,0.00,,---,0.00,VWS V14.01,2013-03-24 09:33:00,
2013-03-24 05:38:00,27.0,2.3,29.88,SW,222,3.1,3.1,34,0.00,,---,0.00,VWS V14.01,2013-03-24 09:38:00,
2013-03-24 05:43:00,27.0,2.3,29.91,West,261,0.0,0.0,34,0.00,,---,0.00,VWS V14.01,2013-03-24 09:43:00,
2013-03-24 05:48:00,26.8,2.2,29.91,West,261,0.0,0.0,34,0.00,,---,0.00,VWS V14.01,2013-03-24 09:48:00,
2013-03-24 05:53:00,26.6,2.0,29.91,West,261,2.7,2.7,34,0.00,,---,0.00,VWS V14.01,2013-03-24 09:53:00,
2013-03-24 05:58:00,26.6,2.7,29.91,West,275,3.1,3.1,35,0.00,,---,0.00,VWS V14.01,2013-03-24 09:58:00,
2013-03-24 06:03:00,26.6,2.7,29.91,WSW,242,0.0,0.0,35,0.00,,---,0.00,VWS V14.01,2013-03-24 10:03:00,
2013-03-24 06:08:00,26.6,2.7,29.91,WSW,242,0.0,0.0,35,0.00,,---,0.00,VWS V14.01,2013-03-24 10:08:00,
2013-03-24 06:13:00,26.6,2.7,29.91,SSW,209,0.0,0.0,35,0.00,,---,0.00,VWS V14.01,2013-03-24 10:13:00,
2013-03-24 06:18:00,26.1,2.2,29.91,West,266,3.6,3.6,35,0.00,,---,0.00,VWS V14.01,2013-03-24 10:18:00,
2013-03-24 06:23:00,26.4,3.1,29.91,West,266,3.6,3.6,36,0.00,,---,0.00,VWS V14.01,2013-03-24 10:23:00,
2013-03-24 06:29:00,26.4,3.1,29.91,SW,218,2.7,2.7,36,0.00,,---,0.00,VWS V14.01,2013-03-24 10:29:00,
2013-03-24 06:34:00,26.4,3.1,29.91,SW,234,0.0,0.0,36,0.00,,---,0.00,VWS V14.01,2013-03-24 10:34:00,
2013-03-24 06:39:00,26.4,3.1,29.91,WNW,287,0.0,0.0,36,0.00,,---,0.00,VWS V14.01,2013-03-24 10:39:00,
2013-03-24 06:44:00,26.1,2.8,29.91,WNW,287,0.0,0.0,36,0.00,,---,0.00,VWS V14.01,2013-03-24 10:44:00,
2013-03-24 06:49:00,26.1,2.8,29.91,West,273,0.0,0.0,36,0.00,,---,0.00,VWS V14.01,2013-03-24 10:49:00,
2013-03-24 06:54:00,25.5,2.3,29.91,West,265,2.7,2.7,36,0.00,,---,0.00,VWS V14.01,2013-03-24 10:54:00,
2013-03-24 06:59:00,25.7,3.0,29.91,WNW,297,2.7,2.7,37,0.00,,---,0.00,VWS V14.01,2013-03-24 10:59:00,
2013-03-24 07:04:00,25.7,3.0,29.91,West,268,0.0,0.0,37,0.00,,---,0.00,VWS V14.01,2013-03-24 11:04:00,
2013-03-24 07:09:00,26.2,4.1,29.91,SW,234,3.1,3.1,38,0.00,,---,0.00,VWS V14.01,2013-03-24 11:09:00,
2013-03-24 07:14:00,26.2,4.1,29.91,SW,230,2.7,2.7,38,0.00,,---,0.00,VWS V14.01,2013-03-24 11:14:00,
2013-03-24 07:19:00,26.6,5.0,29.91,NW,317,3.1,3.1,39,0.00,,---,0.00,VWS V14.01,2013-03-24 11:19:00,
2013-03-24 07:24:00,26.6,5.0,29.91,West,270,2.7,2.7,39,0.00,,---,0.00,VWS V14.01,2013-03-24 11:24:00,
2013-03-24 07:29:00,27.1,5.5,29.91,WSW,253,3.6,3.6,39,0.00,,---,0.00,VWS V14.01,2013-03-24 11:29:00,
2013-03-24 07:34:00,28.0,6.8,29.91,NW,325,3.6,3.6,40,0.00,,---,0.00,VWS V14.01,2013-03-24 11:34:00,
2013-03-24 07:39:00,28.0,6.8,29.91,WNW,290,3.6,3.6,40,0.00,,---,0.00,VWS V14.01,2013-03-24 11:39:00,
2013-03-24 07:44:00,29.1,6.7,29.91,West,259,0.0,0.0,38,0.00,,---,0.00,VWS V14.01,2013-03-24 11:44:00,
2013-03-24 07:49:00,29.5,6.4,29.91,West,266,5.4,5.4,37,0.00,,---,0.00,VWS V14.01,2013-03-24 11:49:00,
2013-03-24 07:54:00,29.5,6.4,29.91,West,274,5.8,5.8,37,0.00,,---,0.00,VWS V14.01,2013-03-24 11:54:00,
2013-03-24 07:59:00,31.5,6.3,29.91,NW,304,7.6,7.6,34,0.00,,---,0.00,VWS V14.01,2013-03-24 11:59:00,
2013-03-24 08:04:00,32.4,5.8,29.91,NW,304,7.6,7.6,32,0.00,,---,0.00,VWS V14.01,2013-03-24 12:04:00,
2013-03-24 08:09:00,33.1,5.8,29.91,WNW,284,2.7,2.7,31,0.00,,---,0.00,VWS V14.01,2013-03-24 12:09:00,
2013-03-24 08:14:00,33.4,6.1,29.91,SW,227,2.7,2.7,31,0.00,,---,0.00,VWS V14.01,2013-03-24 12:14:00,
2013-03-24 08:19:00,33.4,6.1,29.91,West,276,2.7,2.7,31,0.00,,---,0.00,VWS V14.01,2013-03-24 12:19:00,
2013-03-24 08:24:00,34.9,4.3,29.91,West,280,2.7,2.7,27,0.00,,---,0.00,VWS V14.01,2013-03-24 12:24:00,
2013-03-24 08:29:00,35.1,2.8,29.91,West,270,3.1,3.1,25,0.00,,---,0.00,VWS V14.01,2013-03-24 12:29:00,
2013-03-24 08:34:00,36.0,2.7,29.91,West,270,3.1,3.1,24,0.00,,---,0.00,VWS V14.01,2013-03-24 12:34:00,
2013-03-24 08:39:00,36.0,2.7,29.91,NW,305,3.1,3.1,24,0.00,,---,0.00,VWS V14.01,2013-03-24 12:39:00,
2013-03-24 08:44:00,37.4,1.0,29.91,NW,311,4.0,4.0,21,0.00,,---,0.00,VWS V14.01,2013-03-24 12:44:00,
2013-03-24 08:49:00,38.3,-0.3,29.91,WSW,254,3.1,3.1,19,0.00,,---,0.00,VWS V14.01,2013-03-24 12:49:00,
2013-03-24 08:54:00,41.2,0.9,29.91,WNW,289,6.3,6.3,18,0.00,,---,0.00,VWS V14.01,2013-03-24 12:54:00,
2013-03-24 08:59:00,43.7,-0.9,29.91,West,277,5.4,5.4,15,0.00,,---,0.00,VWS V14.01,2013-03-24 12:59:00,
2013-03-24 09:04:00,44.8,0.0,29.91,West,274,5.8,5.8,15,0.00,,---,0.00,VWS V14.01,2013-03-24 13:04:00,
2013-03-24 09:09:00,44.8,0.0,29.91,West,275,4.5,4.5,15,0.00,,---,0.00,VWS V14.01,2013-03-24 13:09:00,
2013-03-24 09:14:00,47.7,0.8,29.91,West,266,5.4,5.4,14,0.00,,---,0.00,VWS V14.01,2013-03-24 13:14:00,
2013-03-24 09:19:00,48.9,1.8,29.91,NW,311,2.7,2.7,14,0.00,,---,0.00,VWS V14.01,2013-03-24 13:19:00,
2013-03-24 09:24:00,51.6,4.0,29.91,West,264,12.8,12.8,14,0.00,,---,0.00,VWS V14.01,2013-03-24 13:24:00,
2013-03-24 09:29:00,51.3,3.7,29.91,NNW,339,2.7,2.7,14,0.00,,---,0.00,VWS V14.01,2013-03-24 13:29:00,
2013-03-24 09:34:00,50.0,2.7,29.91,WNW,293,4.9,4.9,14,0.00,,---,0.00,VWS V14.01,2013-03-24 13:34:00,
2013-03-24 09:39:00,50.5,3.1,29.91,NW,312,5.8,5.8,14,0.00,,---,0.00,VWS V14.01,2013-03-24 13:39:00,
2013-03-24 09:44:00,51.4,3.8,29.91,NW,309,5.8,5.8,14,0.00,,---,0.00,VWS V14.01,2013-03-24 13:44:00,
2013-03-24 09:49:00,51.4,3.8,29.91,West,281,4.9,4.9,14,0.00,,---,0.00,VWS V14.01,2013-03-24 13:49:00,
2013-03-24 09:54:00,50.0,2.7,29.91,West,273,6.3,6.3,14,0.00,,---,0.00,VWS V14.01,2013-03-24 13:54:00,
2013-03-24 09:59:00,50.0,2.7,29.88,WNW,289,4.0,4.0,14,0.00,,---,0.00,VWS V14.01,2013-03-24 13:59:00,
2013-03-24 10:04:00,52.9,3.4,29.88,NW,321,4.0,4.0,13,0.00,,---,0.00,VWS V14.01,2013-03-24 14:04:00,
2013-03-24 10:10:00,53.1,3.5,29.88,NNW,345,4.0,4.0,13,0.00,,---,0.00,VWS V14.01,2013-03-24 14:10:00,
2013-03-24 10:15:00,52.0,2.7,29.88,NW,314,5.4,5.4,13,0.00,,---,0.00,VWS V14.01,2013-03-24 14:15:00,
2013-03-24 10:19:00,50.5,3.1,29.88,NNW,346,4.9,4.9,14,0.00,,---,0.00,VWS V14.01,2013-03-24 14:19:00,
2013-03-24 10:24:00,50.4,3.0,29.88,NNW,335,4.0,4.0,14,0.00,,---,0.00,VWS V14.01,2013-03-24 14:24:00,
2013-03-24 10:29:00,50.4,3.0,29.88,WSW,242,6.3,6.3,14,0.00,,---,0.00,VWS V14.01,2013-03-24 14:29:00,
2013-03-24 10:35:00,52.3,3.0,29.88,WSW,242,6.3,6.3,13,0.00,,---,0.00,VWS V14.01,2013-03-24 14:35:00,
2013-03-24 10:40:00,53.1,3.5,29.88,NW,305,4.9,4.9,13,0.00,,---,0.00,VWS V14.01,2013-03-24 14:40:00,
2013-03-24 10:45:00,54.3,4.5,29.85,WNW,282,4.0,4.0,13,0.00,,---,0.00,VWS V14.01,2013-03-24 14:45:00,
2013-03-24 10:50:00,54.1,4.4,29.85,West,274,7.2,7.2,13,0.00,,---,0.00,VWS V14.01,2013-03-24 14:50:00,
2013-03-24 10:55:00,54.1,4.4,29.85,NE,36,4.9,4.9,13,0.00,,---,0.00,VWS V14.01,2013-03-24 14:55:00,
2013-03-24 11:00:00,50.9,3.4,29.85,NW,319,5.4,5.4,14,0.00,,---,0.00,VWS V14.01,2013-03-24 15:00:00,
2013-03-24 11:05:00,50.2,2.8,29.85,NW,318,7.6,7.6,14,0.00,,---,0.00,VWS V14.01,2013-03-24 15:05:00,
2013-03-24 11:10:00,47.7,0.8,29.85,NW,318,7.6,7.6,14,0.00,,---,0.00,VWS V14.01,2013-03-24 15:10:00,
2013-03-24 11:15:00,47.5,0.7,29.85,West,270,5.8,5.8,14,0.00,,---,0.00,VWS V14.01,2013-03-24 15:15:00,
2013-03-24 11:20:00,47.1,0.4,29.85,NNE,14,3.1,3.1,14,0.00,,---,0.00,VWS V14.01,2013-03-24 15:20:00,
2013-03-24 11:25:00,47.1,0.4,29.85,NE,41,6.3,6.3,14,0.00,,---,0.00,VWS V14.01,2013-03-24 15:25:00,
2013-03-24 11:30:00,47.3,0.5,29.85,NNW,342,5.4,5.4,14,0.00,,---,0.00,VWS V14.01,2013-03-24 15:30:00,
2013-03-24 11:35:00,47.3,0.5,29.83,West,278,5.4,5.4,14,0.00,,---,0.00,VWS V14.01,2013-03-24 15:35:00,
2013-03-24 11:40:00,47.5,0.7,29.83,WNW,290,4.0,4.0,14,0.00,,---,0.00,VWS V14.01,2013-03-24 15:40:00,
2013-03-24 11:45:00,47.5,0.7,29.83,NNW,330,3.6,3.6,14,0.00,,---,0.00,VWS V14.01,2013-03-24 15:45:00,
2013-03-24 11:50:00,48.4,1.4,29.83,West,265,2.7,2.7,14,0.00,,---,0.00,VWS V14.01,2013-03-24 15:50:00,
2013-03-24 11:55:00,48.7,1.7,29.83,NNE,28,9.6,9.6,14,0.00,,---,0.00,VWS V14.01,2013-03-24 15:55:00,
2013-03-24 12:00:00,48.7,1.7,29.83,NNE,23,4.0,4.0,14,0.00,,---,0.00,VWS V14.01,2013-03-24 16:00:00,
2013-03-24 12:05:00,48.9,1.8,29.80,West,262,5.8,5.8,14,0.00,,---,0.00,VWS V14.01,2013-03-24 16:05:00,
2013-03-24 12:10:00,49.1,2.0,29.80,WSW,242,4.9,4.9,14,0.00,,---,0.00,VWS V14.01,2013-03-24 16:10:00,
2013-03-24 12:15:00,49.1,2.0,29.80,NNE,16,4.0,4.0,14,0.00,,---,0.00,VWS V14.01,2013-03-24 16:15:00,
2013-03-24 12:20:00,49.5,2.3,29.80,NE,39,4.0,4.0,14,0.00,,---,0.00,VWS V14.01,2013-03-24 16:20:00,
2013-03-24 12:25:00,49.6,2.4,29.80,NNW,348,5.4,5.4,14,0.00,,---,0.00,VWS V14.01,2013-03-24 16:25:00,
2013-03-24 12:30:00,50.2,2.8,29.83,WNW,288,6.3,6.3,14,0.00,,---,0.00,VWS V14.01,2013-03-24 16:30:00,
2013-03-24 12:35:00,50.2,2.8,29.83,West,278,3.1,3.1,14,0.00,,---,0.00,VWS V14.01,2013-03-24 16:35:00,
2013-03-24 12:40:00,50.2,2.8,29.83,WSW,249,5.8,5.8,14,0.00,,---,0.00,VWS V14.01,2013-03-24 16:40:00,
2013-03-24 12:45:00,50.7,3.3,29.83,WSW,249,5.8,5.8,14,0.00,,---,0.00,VWS V14.01,2013-03-24 16:45:00,
2013-03-24 12:50:00,50.7,3.3,29.83,ENE,76,0.0,0.0,14,0.00,,---,0.00,VWS V14.01,2013-03-24 16:50:00,
2013-03-24 12:55:00,51.8,2.5,29.83,NW,311,5.8,5.8,13,0.00,,---,0.00,VWS V14.01,2013-03-24 16:55:00,
2013-03-24 13:00:00,50.9,3.4,29.83,SW,214,3.1,3.1,14,0.00,,---,0.00,VWS V14.01,2013-03-24 17:00:00,
2013-03-24 13:05:00,51.1,3.6,29.83,NNE,22,0.0,0.0,14,0.00,,---,0.00,VWS V14.01,2013-03-24 17:05:00,
2013-03-24 13:11:00,51.4,3.8,29.83,NNE,22,0.0,0.0,14,0.00,,---,0.00,VWS V14.01,2013-03-24 17:11:00,
2013-03-24 13:16:00,51.4,3.8,29.80,SW,216,5.4,5.4,14,0.00,,---,0.00,VWS V14.01,2013-03-24 17:16:00,
2013-03-24 13:21:00,51.3,3.7,29.80,WSW,237,3.6,3.6,14,0.00,,---,0.00,VWS V14.01,2013-03-24 17:21:00,
2013-03-24 13:26:00,51.3,3.7,29.80,NW,320,0.0,0.0,14,0.00,,---,0.00,VWS V14.01,2013-03-24 17:26:00,
2013-03-24 13:31:00,51.3,3.7,29.80,NW,320,0.0,0.0,14,0.00,,---,0.00,VWS V14.01,2013-03-24 17:31:00,
2013-03-24 13:36:00,52.0,2.7,29.80,SSW,200,3.1,3.1,13,0.00,,---,0.00,VWS V14.01,2013-03-24 17:36:00,
2013-03-24 13:41:00,52.2,2.8,29.80,NNE,22,6.3,6.3,13,0.00,,---,0.00,VWS V14.01,2013-03-24 17:41:00,
2013-03-24 13:46:00,52.2,2.8,29.77,East,99,5.4,5.4,13,0.00,,---,0.00,VWS V14.01,2013-03-24 17:46:00,
2013-03-24 13:51:00,52.2,2.8,29.77,East,90,7.6,7.6,13,0.00,,---,0.00,VWS V14.01,2013-03-24 17:51:00,
2013-03-24 13:56:00,51.4,3.8,29.77,East,90,5.8,5.8,14,0.00,,---,0.00,VWS V14.01,2013-03-24 17:56:00,
2013-03-24 14:01:00,52.5,3.1,29.77,ESE,109,0.0,0.0,13,0.00,,---,0.00,VWS V14.01,2013-03-24 18:01:00,
2013-03-24 14:06:00,52.9,3.4,29.77,SSE,164,4.0,4.0,13,0.00,,---,0.00,VWS V14.01,2013-03-24 18:06:00,
2013-03-24 14:11:00,52.9,3.4,29.77,East,92,3.6,3.6,13,0.00,,---,0.00,VWS V14.01,2013-03-24 18:11:00,
2013-03-24 14:16:00,51.8,2.5,29.74,NE,41,8.1,8.1,13,0.00,,---,0.00,VWS V14.01,2013-03-24 18:16:00,
2013-03-24 14:21:00,51.4,3.8,29.74,NE,41,8.1,8.1,14,0.00,,---,0.00,VWS V14.01,2013-03-24 18:21:00,
2013-03-24 14:26:00,51.1,3.6,29.74,ESE,103,5.4,5.4,14,0.00,,---,0.00,VWS V14.01,2013-03-24 18:26:00,
2013-03-24 14:32:00,51.1,3.6,29.74,East,79,4.9,4.9,14,0.00,,---,0.00,VWS V14.01,2013-03-24 18:32:00,
2013-03-24 14:37:00,51.1,3.6,29.74,ENE,63,11.9,11.9,14,0.00,,---,0.00,VWS V14.01,2013-03-24 18:37:00,
2013-03-24 14:42:00,51.1,3.6,29.74,East,82,4.0,4.0,14,0.00,,---,0.00,VWS V14.01,2013-03-24 18:42:00,
2013-03-24 14:47:00,49.3,2.1,29.71,East,82,4.0,4.0,14,0.00,,---,0.00,VWS V14.01,2013-03-24 18:47:00,
2013-03-24 14:52:00,49.3,2.1,29.71,SE,126,8.7,8.7,14,0.00,,---,0.00,VWS V14.01,2013-03-24 18:52:00,
2013-03-24 14:57:00,48.7,1.7,29.71,SE,135,3.1,3.1,14,0.00,,---,0.00,VWS V14.01,2013-03-24 18:57:00,
2013-03-24 15:02:00,48.7,1.7,29.71,NE,43,5.8,5.8,14,0.00,,---,0.00,VWS V14.01,2013-03-24 19:02:00,
2013-03-24 15:07:00,48.7,1.7,29.71,East,82,5.8,5.8,14,0.00,,---,0.00,VWS V14.01,2013-03-24 19:07:00,
2013-03-24 15:12:00,48.7,1.7,29.71,NE,48,5.8,5.8,14,0.00,,---,0.00,VWS V14.01,2013-03-24 19:12:00,
2013-03-24 15:17:00,48.7,1.7,29.71,ENE,74,5.4,5.4,14,0.00,,---,0.00,VWS V14.01,2013-03-24 19:17:00,
2013-03-24 15:22:00,48.9,1.8,29.71,NNE,33,11.0,11.0,14,0.00,,---,0.00,VWS V14.01,2013-03-24 19:22:00,
2013-03-24 15:27:00,48.6,1.5,29.71,ENE,77,6.7,6.7,14,0.00,,---,0.00,VWS V14.01,2013-03-24 19:27:00,
2013-03-24 15:32:00,48.6,1.5,29.71,ESE,104,0.0,0.0,14,0.00,,---,0.00,VWS V14.01,2013-03-24 19:32:00,
2013-03-24 15:37:00,48.4,1.4,29.71,East,98,5.4,5.4,14,0.00,,---,0.00,VWS V14.01,2013-03-24 19:37:00,
2013-03-24 15:43:00,48.2,1.2,29.71,NE,42,3.6,3.6,14,0.00,,---,0.00,VWS V14.01,2013-03-24 19:43:00,
2013-03-24 15:48:00,47.7,0.8,29.71,ENE,62,8.1,8.1,14,0.00,,---,0.00,VWS V14.01,2013-03-24 19:48:00,
2013-03-24 15:52:00,47.3,0.5,29.71,NE,51,5.8,5.8,14,0.00,,---,0.00,VWS V14.01,2013-03-24 19:52:00,
2013-03-24 15:58:00,47.3,0.5,29.71,East,97,4.9,4.9,14,0.00,,---,0.00,VWS V14.01,2013-03-24 19:58:00,
2013-03-24 16:03:00,46.8,0.1,29.68,NE,38,4.9,4.9,14,0.00,,---,0.00,VWS V14.01,2013-03-24 20:03:00,
2013-03-24 16:08:00,46.8,0.1,29.68,NNE,19,7.2,7.2,14,0.00,,---,0.00,VWS V14.01,2013-03-24 20:08:00,
2013-03-24 16:13:00,46.8,0.1,29.68,East,82,7.2,7.2,14,0.00,,---,0.00,VWS V14.01,2013-03-24 20:13:00,
2013-03-24 16:18:00,46.8,0.1,29.68,NE,44,8.1,8.1,14,0.00,,---,0.00,VWS V14.01,2013-03-24 20:18:00,
2013-03-24 16:23:00,46.8,0.1,29.68,NE,50,4.0,4.0,14,0.00,,---,0.00,VWS V14.01,2013-03-24 20:23:00,
2013-03-24 16:28:00,46.2,1.1,29.68,East,82,2.7,2.7,15,0.00,,---,0.00,VWS V14.01,2013-03-24 20:28:00,
2013-03-24 16:33:00,46.2,1.1,29.68,ENE,62,6.3,6.3,15,0.00,,---,0.00,VWS V14.01,2013-03-24 20:33:00,
2013-03-24 16:38:00,45.9,0.8,29.68,SE,124,6.3,6.3,15,0.00,,---,0.00,VWS V14.01,2013-03-24 20:38:00,
2013-03-24 16:43:00,45.9,0.8,29.68,ENE,60,6.3,6.3,15,0.00,,---,0.00,VWS V14.01,2013-03-24 20:43:00,
2013-03-24 16:48:00,45.9,0.8,29.68,East,80,5.8,5.8,15,0.00,,---,0.00,VWS V14.01,2013-03-24 20:48:00,
2013-03-24 16:53:00,45.9,0.8,29.68,East,87,5.8,5.8,15,0.00,,---,0.00,VWS V14.01,2013-03-24 20:53:00,
2013-03-24 16:58:00,44.8,0.0,29.68,East,87,5.8,5.8,15,0.00,,---,0.00,VWS V14.01,2013-03-24 20:58:00,
2013-03-24 17:03:00,44.6,-0.2,29.68,ENE,77,5.4,5.4,15,0.00,,---,0.00,VWS V14.01,2013-03-24 21:03:00,
2013-03-24 17:08:00,44.6,-0.2,29.68,East,86,6.3,6.3,15,0.00,,---,0.00,VWS V14.01,2013-03-24 21:08:00,
2013-03-24 17:13:00,44.6,-0.2,29.68,ENE,61,3.6,3.6,15,0.00,,---,0.00,VWS V14.01,2013-03-24 21:13:00,
2013-03-24 17:18:00,44.6,-0.2,29.68,ENE,60,3.1,3.1,15,0.00,,---,0.00,VWS V14.01,2013-03-24 21:18:00,
2013-03-24 17:23:00,44.4,-0.3,29.68,ENE,61,4.5,4.5,15,0.00,,---,0.00,VWS V14.01,2013-03-24 21:23:00,
2013-03-24 17:28:00,44.1,-0.6,29.68,East,87,5.4,5.4,15,0.00,,---,0.00,VWS V14.01,2013-03-24 21:28:00,
2013-03-24 17:33:00,43.9,-0.8,29.68,East,79,4.9,4.9,15,0.00,,---,0.00,VWS V14.01,2013-03-24 21:33:00,
2013-03-24 17:38:00,43.9,-0.8,29.68,ESE,106,3.6,3.6,15,0.00,,---,0.00,VWS V14.01,2013-03-24 21:38:00,
2013-03-24 17:43:00,43.9,-0.8,29.68,ESE,114,4.0,4.0,15,0.00,,---,0.00,VWS V14.01,2013-03-24 21:43:00,
2013-03-24 17:48:00,43.0,-1.5,29.68,ESE,112,2.7,2.7,15,0.00,,---,0.00,VWS V14.01,2013-03-24 21:48:00,
2013-03-24 17:53:00,43.0,-1.5,29.68,ENE,69,2.7,2.7,15,0.00,,---,0.00,VWS V14.01,2013-03-24 21:53:00,
2013-03-24 17:58:00,42.8,2.2,29.68,ESE,102,4.0,4.0,18,0.00,,---,0.00,VWS V14.01,2013-03-24 21:58:00,
2013-03-24 18:03:00,42.6,2.1,29.68,NNE,31,2.2,2.2,18,0.00,,---,0.00,VWS V14.01,2013-03-24 22:03:00,
2013-03-24 18:08:00,42.6,2.1,29.68,East,100,2.7,2.7,18,0.00,,---,0.00,VWS V14.01,2013-03-24 22:08:00,
2013-03-24 18:13:00,42.3,1.8,29.68,East,100,0.0,0.0,18,0.00,,---,0.00,VWS V14.01,2013-03-24 22:13:00,
2013-03-24 18:18:00,42.3,1.8,29.68,East,86,7.6,7.6,18,0.00,,---,0.00,VWS V14.01,2013-03-24 22:18:00,
2013-03-24 18:23:00,41.5,1.2,29.68,East,95,3.6,3.6,18,0.00,,---,0.00,VWS V14.01,2013-03-24 22:23:00,
2013-03-24 18:28:00,41.5,1.2,29.68,East,83,5.4,5.4,18,0.00,,---,0.00,VWS V14.01,2013-03-24 22:28:00,
2013-03-24 18:33:00,41.0,4.1,29.68,East,95,4.0,4.0,21,0.00,,---,0.00,VWS V14.01,2013-03-24 22:33:00,
2013-03-24 18:39:00,40.6,3.8,29.68,East,90,3.6,3.6,21,0.00,,---,0.00,VWS V14.01,2013-03-24 22:39:00,
2013-03-24 18:44:00,40.6,3.8,29.68,East,92,4.0,4.0,21,0.00,,---,0.00,VWS V14.01,2013-03-24 22:44:00,
2013-03-24 18:49:00,40.3,3.5,29.68,SE,135,3.1,3.1,21,0.00,,---,0.00,VWS V14.01,2013-03-24 22:49:00,
2013-03-24 18:54:00,40.1,3.3,29.68,SE,132,8.1,8.1,21,0.00,,---,0.00,VWS V14.01,2013-03-24 22:54:00,
2013-03-24 18:59:00,39.9,3.2,29.71,ESE,110,3.1,3.1,21,0.00,,---,0.00,VWS V14.01,2013-03-24 22:59:00,
2013-03-24 19:04:00,39.7,5.0,29.71,East,97,4.0,4.0,23,0.00,,---,0.00,VWS V14.01,2013-03-24 23:04:00,
2013-03-24 19:09:00,39.6,4.8,29.71,SE,129,3.6,3.6,23,0.00,,---,0.00,VWS V14.01,2013-03-24 23:09:00,
2013-03-24 19:14:00,39.4,4.7,29.71,ESE,115,2.2,2.2,23,0.00,,---,0.00,VWS V14.01,2013-03-24 23:14:00,
2013-03-24 19:19:00,39.2,4.5,29.71,ESE,104,2.7,2.7,23,0.00,,---,0.00,VWS V14.01,2013-03-24 23:19:00,
2013-03-24 19:24:00,39.2,4.5,29.71,East,93,2.2,2.2,23,0.00,,---,0.00,VWS V14.01,2013-03-24 23:24:00,
2013-03-24 19:29:00,39.0,5.3,29.71,East,93,0.0,0.0,24,0.00,,---,0.00,VWS V14.01,2013-03-24 23:29:00,
2013-03-24 19:34:00,39.0,5.3,29.71,SE,133,5.8,5.8,24,0.00,,---,0.00,VWS V14.01,2013-03-24 23:34:00,
2013-03-24 19:39:00,38.8,6.9,29.71,SSE,148,0.0,0.0,26,0.00,,---,0.00,VWS V14.01,2013-03-24 23:39:00,
2013-03-24 19:44:00,38.8,6.9,29.71,ESE,122,3.6,3.6,26,0.00,,---,0.00,VWS V14.01,2013-03-24 23:44:00,
2013-03-24 19:49:00,38.7,6.7,29.71,SE,126,4.0,4.0,26,0.00,,---,0.00,VWS V14.01,2013-03-24 23:49:00,
2013-03-24 19:54:00,38.7,6.7,29.71,ESE,119,0.0,0.0,26,0.00,,---,0.00,VWS V14.01,2013-03-24 23:54:00,
2013-03-24 19:59:00,38.7,6.7,29.71,SE,126,0.0,0.0,26,0.00,,---,0.00,VWS V14.01,2013-03-24 23:59:00,
2013-03-24 20:04:00,38.5,6.6,29.71,SE,126,0.0,0.0,26,0.00,,---,0.00,VWS V14.01,2013-03-25 00:04:00,
2013-03-24 20:09:00,38.5,6.6,29.71,SE,126,3.6,3.6,26,0.00,,---,0.00,VWS V14.01,2013-03-25 00:09:00,
2013-03-24 20:14:00,38.5,6.6,29.71,SE,126,2.7,2.7,26,0.00,,---,0.00,VWS V14.01,2013-03-25 00:14:00,
2013-03-24 20:19:00,38.5,9.0,29.71,SSE,152,3.6,3.6,29,0.00,,---,0.00,VWS V14.01,2013-03-25 00:19:00,
2013-03-24 20:24:00,38.5,9.0,29.71,ESE,119,2.7,2.7,29,0.00,,---,0.00,VWS V14.01,2013-03-25 00:24:00,
2013-03-24 20:29:00,38.5,9.0,29.71,ESE,116,3.1,3.1,29,0.00,,---,0.00,VWS V14.01,2013-03-25 00:29:00,
2013-03-24 20:34:00,38.5,9.8,29.71,SSE,157,4.9,4.9,30,0.00,,---,0.00,VWS V14.01,2013-03-25 00:34:00,
2013-03-24 20:39:00,38.5,9.8,29.71,East,98,2.7,2.7,30,0.00,,---,0.00,VWS V14.01,2013-03-25 00:39:00,
2013-03-24 20:44:00,38.5,9.8,29.71,ESE,113,4.9,4.9,30,0.00,,---,0.00,VWS V14.01,2013-03-25 00:44:00,
2013-03-24 20:49:00,38.5,9.8,29.71,ESE,114,3.6,3.6,30,0.00,,---,0.00,VWS V14.01,2013-03-25 00:49:00,
2013-03-24 20:54:00,38.5,9.8,29.71,ESE,109,2.7,2.7,30,0.00,,---,0.00,VWS V14.01,2013-03-25 00:54:00,
2013-03-24 20:59:00,38.5,9.8,29.71,ESE,118,2.2,2.2,30,0.00,,---,0.00,VWS V14.01,2013-03-25 00:59:00,
2013-03-24 21:04:00,38.5,9.8,29.71,South,170,0.0,0.0,30,0.00,,---,0.00,VWS V14.01,2013-03-25 01:04:00,
2013-03-24 21:09:00,38.5,9.8,29.71,SSE,163,0.0,0.0,30,0.00,,---,0.00,VWS V14.01,2013-03-25 01:09:00,
2013-03-24 21:14:00,38.3,10.3,29.71,SE,125,2.7,2.7,31,0.00,,---,0.00,VWS V14.01,2013-03-25 01:14:00,
2013-03-24 21:19:00,38.3,10.3,29.71,SSE,160,0.0,0.0,31,0.00,,---,0.00,VWS V14.01,2013-03-25 01:19:00,
2013-03-24 21:24:00,38.3,10.3,29.71,SSE,159,4.0,4.0,31,0.00,,---,0.00,VWS V14.01,2013-03-25 01:24:00,
2013-03-24 21:29:00,38.3,10.3,29.71,South,176,2.7,2.7,31,0.00,,---,0.00,VWS V14.01,2013-03-25 01:29:00,
2013-03-24 21:34:00,38.3,10.3,29.74,South,185,2.7,2.7,31,0.00,,---,0.00,VWS V14.01,2013-03-25 01:34:00,
2013-03-24 21:39:00,38.1,10.2,29.74,South,173,2.2,2.2,31,0.00,,---,0.00,VWS V14.01,2013-03-25 01:39:00,
2013-03-24 21:44:00,38.1,10.2,29.74,South,170,0.0,0.0,31,0.00,,---,0.00,VWS V14.01,2013-03-25 01:44:00,
2013-03-24 21:49:00,38.1,10.2,29.74,South,173,0.0,0.0,31,0.00,,---,0.00,VWS V14.01,2013-03-25 01:49:00,
2013-03-24 21:54:00,38.1,10.2,29.74,SSE,152,0.0,0.0,31,0.00,,---,0.00,VWS V14.01,2013-03-25 01:54:00,
2013-03-24 21:59:00,38.1,10.2,29.71,South,185,0.0,0.0,31,0.00,,---,0.00,VWS V14.01,2013-03-25 01:59:00,
2013-03-24 22:04:00,38.1,10.2,29.71,SSE,158,0.0,0.0,31,0.00,,---,0.00,VWS V14.01,2013-03-25 02:04:00,
2013-03-24 22:09:00,38.1,10.2,29.71,SSE,158,0.0,0.0,31,0.00,,---,0.00,VWS V14.01,2013-03-25 02:09:00,
2013-03-24 22:14:00,37.9,10.0,29.71,SSE,158,0.0,0.0,31,0.00,,---,0.00,VWS V14.01,2013-03-25 02:14:00,
2013-03-24 22:19:00,37.9,10.0,29.71,SSE,158,0.0,0.0,31,0.00,,---,0.00,VWS V14.01,2013-03-25 02:19:00,
2013-03-24 22:24:00,37.8,9.9,29.71,SSE,161,0.0,0.0,31,0.00,,---,0.00,VWS V14.01,2013-03-25 02:24:00,
2013-03-24 22:29:00,37.9,10.0,29.71,SE,141,0.0,0.0,31,0.00,,---,0.00,VWS V14.01,2013-03-25 02:29:00,
2013-03-24 22:34:00,37.9,10.0,29.71,SSE,149,0.0,0.0,31,0.00,,---,0.00,VWS V14.01,2013-03-25 02:34:00,
2013-03-24 22:39:00,37.9,10.0,29.71,SSE,147,0.0,0.0,31,0.00,,---,0.00,VWS V14.01,2013-03-25 02:39:00,
2013-03-24 22:44:00,37.9,10.0,29.71,SSE,147,0.0,0.0,31,0.00,,---,0.00,VWS V14.01,2013-03-25 02:44:00,
2013-03-24 22:50:00,37.9,10.0,29.71,SSE,147,0.0,0.0,31,0.00,,---,0.00,VWS V14.01,2013-03-25 02:50:00,
2013-03-24 22:55:00,37.9,10.0,29.71,SSE,147,0.0,0.0,31,0.00,,---,0.00,VWS V14.01,2013-03-25 02:55:00,
2013-03-24 23:00:00,37.8,9.9,29.71,SSE,147,0.0,0.0,31,0.00,,---,0.00,VWS V14.01,2013-03-25 03:00:00,
2013-03-24 23:05:00,37.6,9.7,29.68,SSE,147,0.0,0.0,31,0.00,,---,0.00,VWS V14.01,2013-03-25 03:05:00,
2013-03-24 23:10:00,37.6,9.7,29.68,SSE,147,0.0,0.0,31,0.00,,---,0.00,VWS V14.01,2013-03-25 03:10:00,
2013-03-24 23:15:00,37.6,9.7,29.68,SSE,147,0.0,0.0,31,0.00,,---,0.00,VWS V14.01,2013-03-25 03:15:00,
2013-03-24 23:20:00,37.4,9.5,29.68,SSE,147,0.0,0.0,31,0.00,,---,0.00,VWS V14.01,2013-03-25 03:20:00,
2013-03-24 23:25:00,37.4,9.5,29.68,SSE,147,0.0,0.0,31,0.00,,---,0.00,VWS V14.01,2013-03-25 03:25:00,
2013-03-24 23:30:00,37.4,10.2,29.68,SSE,147,0.0,0.0,32,0.00,,---,0.00,VWS V14.01,2013-03-25 03:30:00,
2013-03-24 23:35:00,37.4,10.2,29.68,SSE,147,0.0,0.0,32,0.00,,---,0.00,VWS V14.01,2013-03-25 03:35:00,
2013-03-24 23:40:00,37.4,10.2,29.68,SSE,147,0.0,0.0,32,0.00,,---,0.00,VWS V14.01,2013-03-25 03:40:00,
2013-03-24 23:45:00,37.4,10.2,29.68,SSE,147,0.0,0.0,32,0.00,,---,0.00,VWS V14.01,2013-03-25 03:45:00,
2013-03-24 23:50:00,37.4,10.9,29.68,SE,142,0.0,0.0,33,0.00,,---,0.00,VWS V14.01,2013-03-25 03:50:00,
2013-03-24 23:55:00,37.4,10.9,29.68,East,87,0.0,0.0,33,0.00,,---,0.00,VWS V14.01,2013-03-25 03:55:00,